This is the latest recevied weather packets stored in our database for station/object KB2AHZ. If no packets are shown the sender has not sent any weather packets the latest 10 day(s).
| Time | Temp. | Humidity | Pressure | Rain* | Wind** | Luminosity | Snow |
|---|---|---|---|---|---|---|---|
| 1778017233 | 26.11° C | 43% | 1013.2 hPa | 0 mm | - | 156 W/m² | - |
| 1778016931 | 26.11° C | 43% | 1013.2 hPa | 0 mm | - | 125 W/m² | - |
| 1778016627 | 26.11° C | 43% | 1013.4 hPa | 0 mm | - | 150 W/m² | - |
| 1778016323 | 26.67° C | 42% | 1013 hPa | 0 mm | - | 273 W/m² | - |
| 1778016021 | 26.67° C | 42% | 1013.3 hPa | 0 mm | - | 200 W/m² | - |
| 1778015718 | 27.22° C | 41% | 1013.4 hPa | 0 mm | - | 424 W/m² | - |
| 1778015414 | 27.22° C | 40% | 1013.2 hPa | 0 mm | - | 395 W/m² | - |
| 1778015111 | 27.22° C | 40% | 1013.3 hPa | 0 mm | - | 383 W/m² | - |
| 1778014809 | 27.22° C | 40% | 1013.5 hPa | 0 mm | - | 402 W/m² | - |
| 1778014506 | 27.78° C | 39% | 1013.4 hPa | 0 mm | - | 468 W/m² | - |
| 1778014203 | 27.22° C | 39% | 1013.4 hPa | 0 mm | - | 508 W/m² | - |
| 1778013901 | 27.22° C | 39% | 1013.6 hPa | 0 mm | - | 497 W/m² | - |
| 1778013598 | 27.78° C | 39% | 1013.7 hPa | 0 mm | - | 530 W/m² | - |
| 1778013294 | 27.78° C | 40% | 1013.4 hPa | 0 mm | - | 570 W/m² | - |
| 1778012991 | 27.22° C | 40% | 1013.4 hPa | 0 mm | - | 604 W/m² | - |
| 1778012688 | 27.22° C | 40% | 1013.7 hPa | 0 mm | - | 409 W/m² | - |
| 1778012383 | 27.22° C | 40% | 1013.4 hPa | 0 mm | - | 428 W/m² | - |
| 1778012081 | 27.22° C | 39% | 1013.6 hPa | 0 mm | - | 428 W/m² | - |
| 1778011778 | 27.22° C | 39% | 1013.6 hPa | 0 mm | - | 726 W/m² | - |
| 1778011476 | 27.22° C | 40% | 1013.7 hPa | 0 mm | - | 622 W/m² | - |
| 1778011171 | 27.22° C | 40% | 1013.6 hPa | 0 mm | - | 644 W/m² | - |
| 1778010868 | 26.67° C | 39% | 1014 hPa | 0 mm | - | 502 W/m² | - |
| 1778010566 | 26.67° C | 40% | 1014.1 hPa | 0 mm | - | 388 W/m² | - |
| 1778010263 | 27.22° C | 39% | 1014 hPa | 0 mm | - | 350 W/m² | - |
| 1778009963 | 27.22° C | 38% | 1014.1 hPa | 0 mm | - | 405 W/m² | - |
* Rain latest hour (hover to see other rain measurements)
** Current wind speed in m/s (hover to see current wind gust speed)